CCA840 LEBL-ZSPD

Flight info

Callsign CCA840
Flight time N/A
Altitude 36000
Route OLOX1Z OLOXO OKABI TOU ADABI BOKNO UN858 VANAD UN874 ARSAF EGOZE CMB VEKIN ADUTO VICOT JUIST DOSUR KOTAM EVONA NETNA TUKMA P989 OBIBA P997 AKUGI T635 SADER T580 ADMUR G117 XV R229 BA R104 ABK A308 TR P982 DARNO Y746 NIXAL B208 CGO W129 KAMDA W128 FYG B208 HFE R343 EKIMU
Aircraft A359/H-SDE2E3FGHIJ4J5M1RWXYZ/LB2D1

Departure

Time N/A
Airport Josep Tarradellas Barcelona-El Prat Airport (LEBL)

Arrival

Time 2026-05-03 21:50
Airport Shanghai Pudong International Airport (ZSPD)
Time Latitude Longitude Altitude Speed Heading
2026-05-03 20:15 38.70489 112.28412 39106 ft 518 kts 172°
2026-05-03 20:15 38.63408 112.30129 39117 ft 517 kts 172°
2026-05-03 20:16 38.56328 112.31842 39121 ft 517 kts 172°
2026-05-03 20:16 38.49260 112.33550 39124 ft 517 kts 172°
2026-05-03 20:17 38.42185 112.35257 39126 ft 517 kts 172°
2026-05-03 20:17 38.35155 112.36935 39135 ft 516 kts 172°
2026-05-03 20:18 38.28104 112.38601 39135 ft 516 kts 172°
2026-05-03 20:18 38.21036 112.40273 39135 ft 516 kts 172°
2026-05-03 20:19 38.13985 112.41940 39143 ft 515 kts 172°
2026-05-03 20:19 38.06923 112.43607 39143 ft 515 kts 172°
2026-05-03 20:20 37.99869 112.45270 39145 ft 515 kts 172°
2026-05-03 20:20 37.92878 112.46915 39146 ft 514 kts 172°
2026-05-03 20:21 37.85843 112.48567 39148 ft 514 kts 172°
2026-05-03 20:21 37.78800 112.50250 39142 ft 514 kts 172°
2026-05-03 20:22 37.71781 112.51942 39147 ft 513 kts 172°
2026-05-03 20:22 37.64849 112.54129 39147 ft 515 kts 167°
2026-05-03 20:23 37.57955 112.56600 39142 ft 515 kts 167°
2026-05-03 20:23 37.51058 112.59009 39149 ft 514 kts 168°
2026-05-03 20:24 37.44196 112.61325 39148 ft 513 kts 168°
2026-05-03 20:24 37.37292 112.63629 39148 ft 513 kts 168°
2026-05-03 20:25 37.30392 112.65927 39152 ft 513 kts 168°
2026-05-03 20:25 37.23495 112.68225 39154 ft 513 kts 168°
2026-05-03 20:26 37.16617 112.70513 39153 ft 513 kts 168°
2026-05-03 20:26 37.09698 112.72811 39151 ft 513 kts 168°
2026-05-03 20:27 37.02828 112.75088 39176 ft 514 kts 168°
2026-05-03 20:27 36.95905 112.77394 39175 ft 514 kts 168°
2026-05-03 20:28 36.88993 112.79679 39181 ft 514 kts 169°
2026-05-03 20:28 36.82098 112.81956 39178 ft 514 kts 169°
2026-05-03 20:29 36.75145 112.84250 39177 ft 515 kts 169°
2026-05-03 20:29 36.68286 112.86509 39180 ft 515 kts 169°
2026-05-03 20:30 36.61302 112.88806 39178 ft 515 kts 169°
2026-05-03 20:30 36.54419 112.91065 39176 ft 515 kts 169°
2026-05-03 20:31 36.47490 112.93335 39175 ft 515 kts 169°
2026-05-03 20:31 36.40687 112.95560 39172 ft 515 kts 169°
2026-05-03 20:32 36.33743 112.97827 39171 ft 515 kts 169°
2026-05-03 20:32 36.26812 113.00085 39174 ft 515 kts 169°
2026-05-03 20:33 36.19923 113.02560 39175 ft 518 kts 165°
2026-05-03 20:33 36.13130 113.05553 39173 ft 518 kts 163°
2026-05-03 20:34 36.06363 113.08615 39167 ft 518 kts 164°
2026-05-03 20:34 35.99599 113.11671 39175 ft 517 kts 164°
2026-05-03 20:35 35.92891 113.14685 39168 ft 516 kts 164°
2026-05-03 20:35 35.86128 113.17712 39153 ft 516 kts 165°
2026-05-03 20:36 35.79395 113.20728 39172 ft 514 kts 165°
2026-05-03 20:36 35.72683 113.23740 39164 ft 513 kts 165°
2026-05-03 20:37 35.65963 113.26746 39158 ft 513 kts 165°
2026-05-03 20:37 35.59246 113.29746 39152 ft 513 kts 165°
2026-05-03 20:38 35.52563 113.32729 39154 ft 513 kts 165°
2026-05-03 20:38 35.45841 113.35712 39148 ft 513 kts 165°
2026-05-03 20:39 35.39130 113.38691 39142 ft 513 kts 165°
2026-05-03 20:39 35.32420 113.41688 39132 ft 514 kts 165°
2026-05-03 20:40 35.25669 113.44696 39132 ft 517 kts 165°
2026-05-03 20:40 35.18948 113.47862 39136 ft 522 kts 158°
2026-05-03 20:41 35.12724 113.52488 39127 ft 524 kts 156°
2026-05-03 20:41 35.09440 113.54327 39099 ft 516 kts 167°
2026-05-03 20:41 35.06008 113.55348 39124 ft 503 kts 179°
2026-05-03 20:42 34.99093 113.56904 39125 ft 509 kts 170°
2026-05-03 20:42 34.92304 113.59488 39127 ft 512 kts 167°
2026-05-03 20:43 34.85674 113.62357 39126 ft 514 kts 166°
2026-05-03 20:43 34.78930 113.65404 39121 ft 518 kts 160°
2026-05-03 20:44 34.72854 113.70273 39125 ft 530 kts 144°
2026-05-03 20:44 34.67384 113.76325 39111 ft 533 kts 141°
2026-05-03 20:45 34.61993 113.82565 39129 ft 535 kts 141°
2026-05-03 20:45 34.56587 113.88753 39120 ft 535 kts 141°
2026-05-03 20:46 34.51183 113.94861 39123 ft 534 kts 142°
2026-05-03 20:46 34.45739 114.00981 39119 ft 534 kts 142°
2026-05-03 20:47 34.40284 114.07101 39091 ft 534 kts 142°
2026-05-03 20:47 34.34830 114.13218 39109 ft 534 kts 142°
2026-05-03 20:48 34.29378 114.19314 39109 ft 534 kts 142°
2026-05-03 20:48 34.23920 114.25407 39088 ft 534 kts 143°
2026-05-03 20:49 34.18462 114.31490 39103 ft 534 kts 143°
2026-05-03 20:49 34.13000 114.37566 39107 ft 534 kts 143°
2026-05-03 20:50 34.07536 114.43640 39096 ft 534 kts 143°
2026-05-03 20:50 34.02108 114.49655 39097 ft 533 kts 143°
2026-05-03 20:51 33.96636 114.55706 39104 ft 533 kts 143°
2026-05-03 20:51 33.91169 114.61743 39097 ft 533 kts 143°
2026-05-03 20:52 33.85724 114.67745 39098 ft 533 kts 143°
2026-05-03 20:52 33.80254 114.73765 39102 ft 533 kts 143°
2026-05-03 20:53 33.74780 114.79778 39106 ft 533 kts 143°
2026-05-03 20:53 33.70183 114.84818 39106 ft 533 kts 143°
2026-05-03 20:54 33.64737 114.90781 39105 ft 533 kts 143°
2026-05-03 20:54 33.56514 114.99763 39094 ft 532 kts 144°
2026-05-03 20:55 33.51041 115.05730 39107 ft 532 kts 144°
2026-05-03 20:55 33.45568 115.11684 39107 ft 531 kts 144°
2026-05-03 20:56 33.40090 115.17632 39110 ft 531 kts 144°
2026-05-03 20:56 33.34616 115.23566 39109 ft 531 kts 145°
2026-05-03 20:57 33.29168 115.29461 39098 ft 531 kts 145°
2026-05-03 20:57 33.23688 115.35381 39119 ft 531 kts 145°
2026-05-03 20:58 33.18199 115.41300 39111 ft 531 kts 145°
2026-05-03 20:58 33.12705 115.47214 39111 ft 531 kts 146°
2026-05-03 20:59 33.07221 115.53108 39118 ft 531 kts 146°
2026-05-03 20:59 33.01729 115.58998 39113 ft 531 kts 146°
2026-05-03 21:00 32.97158 115.63894 39104 ft 531 kts 146°
2026-05-03 21:00 32.90747 115.70752 39120 ft 530 kts 146°
2026-05-03 21:01 32.85620 115.77159 39122 ft 539 kts 138°
2026-05-03 21:01 32.80807 115.83930 39120 ft 540 kts 137°
2026-05-03 21:02 32.75990 115.90802 39121 ft 540 kts 137°
2026-05-03 21:02 32.71174 115.97645 39117 ft 540 kts 137°
2026-05-03 21:03 32.66334 116.04485 39126 ft 540 kts 138°
2026-05-03 21:03 32.61500 116.11292 39119 ft 540 kts 138°
2026-05-03 21:04 32.56657 116.18100 39124 ft 540 kts 138°
2026-05-03 21:04 32.51901 116.24928 39123 ft 541 kts 137°
2026-05-03 21:05 32.47162 116.31870 39120 ft 541 kts 137°
2026-05-03 21:05 32.42422 116.38784 39126 ft 541 kts 137°
2026-05-03 21:06 32.37669 116.45674 39129 ft 540 kts 137°
2026-05-03 21:06 32.32902 116.52563 39131 ft 540 kts 137°
2026-05-03 21:07 32.28136 116.59441 39116 ft 540 kts 138°
2026-05-03 21:07 32.23381 116.66293 39139 ft 539 kts 138°
2026-05-03 21:08 32.18626 116.73127 39142 ft 539 kts 139°
2026-05-03 21:08 32.13820 116.79900 39146 ft 537 kts 140°
2026-05-03 21:09 32.08961 116.86604 39147 ft 537 kts 140°
2026-05-03 21:09 32.04147 116.93252 39148 ft 536 kts 140°
2026-05-03 21:10 31.99314 116.99939 39148 ft 536 kts 140°
2026-05-03 21:10 31.94494 117.06630 39148 ft 536 kts 140°
2026-05-03 21:11 31.89668 117.13327 39149 ft 536 kts 140°
2026-05-03 21:11 31.84843 117.20014 39148 ft 535 kts 140°
2026-05-03 21:12 31.80192 117.26904 39158 ft 548 kts 131°
2026-05-03 21:12 31.78413 117.30921 39158 ft 561 kts 119°
2026-05-03 21:12 31.77274 117.35310 39159 ft 573 kts 106°
2026-05-03 21:13 31.76346 117.44683 39162 ft 580 kts 99°
2026-05-03 21:13 31.75765 117.54165 39163 ft 582 kts 98°
2026-05-03 21:14 31.75176 117.63670 39165 ft 583 kts 99°
2026-05-03 21:14 31.74526 117.73168 39165 ft 583 kts 99°
2026-05-03 21:15 31.73844 117.82657 39167 ft 583 kts 99°
2026-05-03 21:15 31.73159 117.92071 39168 ft 583 kts 99°
2026-05-03 21:16 31.72464 118.01561 39176 ft 582 kts 99°
2026-05-03 21:16 31.71768 118.11017 39167 ft 581 kts 99°
2026-05-03 21:17 31.71206 118.18865 39168 ft 582 kts 99°
2026-05-03 21:17 31.70444 118.29947 39168 ft 582 kts 99°
2026-05-03 21:18 31.69782 118.39433 39160 ft 582 kts 99°
2026-05-03 21:18 31.69109 118.48885 39173 ft 583 kts 99°
2026-05-03 21:19 31.68420 118.58410 39024 ft 584 kts 99°
2026-05-03 21:19 31.68077 118.63119 38811 ft 584 kts 100°
2026-05-03 21:19 31.67733 118.67848 38529 ft 584 kts 100°
2026-05-03 21:20 31.67382 118.72620 38265 ft 584 kts 100°
2026-05-03 21:20 31.67029 118.77387 38010 ft 585 kts 100°
2026-05-03 21:20 31.66675 118.82137 37535 ft 586 kts 100°
2026-05-03 21:20 31.66319 118.86902 36946 ft 586 kts 100°
2026-05-03 21:21 31.65962 118.91657 36385 ft 585 kts 100°
2026-05-03 21:21 31.65603 118.96428 35825 ft 585 kts 101°
2026-05-03 21:21 31.65250 119.01111 35303 ft 585 kts 100°
2026-05-03 21:21 31.64893 119.05927 34774 ft 585 kts 100°
2026-05-03 21:22 31.64596 119.10712 34249 ft 586 kts 99°
2026-05-03 21:22 31.64356 119.15482 33705 ft 586 kts 98°
2026-05-03 21:22 31.64152 119.20198 33129 ft 587 kts 97°
2026-05-03 21:22 31.63965 119.24998 32552 ft 587 kts 97°
2026-05-03 21:23 31.63777 119.29792 31966 ft 587 kts 97°
2026-05-03 21:23 31.63580 119.34570 31380 ft 588 kts 96°
2026-05-03 21:23 31.63370 119.39375 30784 ft 589 kts 96°
2026-05-03 21:23 31.63153 119.44141 30205 ft 590 kts 96°
2026-05-03 21:24 31.62923 119.48990 29518 ft 590 kts 96°
2026-05-03 21:24 31.62691 119.53795 28835 ft 586 kts 96°
2026-05-03 21:24 31.62461 119.58546 28166 ft 580 kts 96°
2026-05-03 21:24 31.62232 119.63237 27540 ft 573 kts 95°
2026-05-03 21:25 31.62006 119.67847 26927 ft 567 kts 95°
2026-05-03 21:25 31.61796 119.72359 26383 ft 560 kts 95°
2026-05-03 21:25 31.61587 119.76977 25888 ft 552 kts 94°
2026-05-03 21:25 31.61382 119.81431 25506 ft 542 kts 94°
2026-05-03 21:26 31.61180 119.85803 25154 ft 533 kts 94°
2026-05-03 21:26 31.60980 119.90077 24829 ft 530 kts 94°
2026-05-03 21:26 31.60776 119.94392 24693 ft 529 kts 94°
2026-05-03 21:26 31.60571 119.98711 24657 ft 530 kts 94°
2026-05-03 21:27 31.60365 120.03011 24402 ft 528 kts 94°
2026-05-03 21:27 31.60158 120.07312 24065 ft 526 kts 94°
2026-05-03 21:27 31.59950 120.11597 23725 ft 524 kts 94°
2026-05-03 21:27 31.59743 120.15838 23337 ft 521 kts 94°
2026-05-03 21:28 31.59535 120.20075 22931 ft 519 kts 94°
2026-05-03 21:28 31.59327 120.24293 22539 ft 515 kts 93°
2026-05-03 21:28 31.59119 120.28451 22128 ft 509 kts 94°
2026-05-03 21:28 31.58691 120.32491 21626 ft 503 kts 104°
2026-05-03 21:29 31.57683 120.36384 21137 ft 495 kts 111°
2026-05-03 21:29 31.56551 120.40170 20641 ft 488 kts 111°
2026-05-03 21:29 31.55438 120.43899 20160 ft 482 kts 110°
2026-05-03 21:29 31.54338 120.47598 19730 ft 476 kts 110°
2026-05-03 21:30 31.53257 120.51241 19349 ft 470 kts 110°
2026-05-03 21:30 31.52193 120.54828 18994 ft 466 kts 110°
2026-05-03 21:30 31.51130 120.58410 18650 ft 462 kts 110°
2026-05-03 21:30 31.50078 120.61955 18305 ft 458 kts 109°
2026-05-03 21:31 31.49037 120.65458 17916 ft 454 kts 109°
2026-05-03 21:31 31.48006 120.68929 17517 ft 451 kts 109°
2026-05-03 21:31 31.46982 120.72368 17134 ft 448 kts 109°
2026-05-03 21:31 31.45960 120.75799 16765 ft 445 kts 109°
2026-05-03 21:32 31.44940 120.79218 16373 ft 442 kts 109°
2026-05-03 21:32 31.43914 120.82614 16007 ft 440 kts 110°
2026-05-03 21:32 31.42872 120.85941 15645 ft 431 kts 110°
2026-05-03 21:32 31.41851 120.89196 15297 ft 421 kts 110°
2026-05-03 21:33 31.40868 120.92342 14946 ft 411 kts 110°
2026-05-03 21:33 31.39890 120.95472 14601 ft 402 kts 110°
2026-05-03 21:33 31.38972 120.98479 14285 ft 394 kts 109°
2026-05-03 21:33 31.38050 121.01517 13926 ft 386 kts 109°
2026-05-03 21:34 31.37172 121.04407 13558 ft 378 kts 109°
2026-05-03 21:34 31.36297 121.07280 13172 ft 372 kts 109°
2026-05-03 21:34 31.35428 121.10128 12790 ft 368 kts 108°
2026-05-03 21:34 31.34585 121.12912 12415 ft 361 kts 108°
2026-05-03 21:35 31.33772 121.15628 12046 ft 355 kts 108°
2026-05-03 21:35 31.32963 121.18323 11672 ft 349 kts 107°
2026-05-03 21:35 31.32204 121.20849 11324 ft 343 kts 107°
2026-05-03 21:35 31.31811 121.22156 11155 ft 340 kts 107°
2026-05-03 21:36 31.31528 121.23095 11032 ft 338 kts 107°
2026-05-03 21:36 31.30715 121.25796 10762 ft 329 kts 107°
2026-05-03 21:36 31.29963 121.28290 10534 ft 320 kts 107°
2026-05-03 21:36 31.29230 121.30721 10297 ft 313 kts 107°
2026-05-03 21:37 31.28512 121.33103 9988 ft 308 kts 106°
2026-05-03 21:37 31.27825 121.35401 9606 ft 305 kts 106°
2026-05-03 21:37 31.27127 121.37702 9230 ft 303 kts 106°
2026-05-03 21:37 31.26424 121.40009 8854 ft 300 kts 106°
2026-05-03 21:38 31.25731 121.42280 8536 ft 295 kts 106°
2026-05-03 21:38 31.25053 121.44505 8253 ft 289 kts 106°
2026-05-03 21:38 31.24383 121.46705 7963 ft 284 kts 105°
2026-05-03 21:38 31.23723 121.48874 7656 ft 280 kts 105°
2026-05-03 21:39 31.23086 121.50992 7371 ft 277 kts 104°
2026-05-03 21:39 31.22801 121.53180 7073 ft 263 kts 79°
2026-05-03 21:39 31.23182 121.55188 6788 ft 252 kts 66°
2026-05-03 21:39 31.23716 121.57121 6510 ft 248 kts 65°
2026-05-03 21:40 31.24074 121.58382 6324 ft 246 kts 65°
2026-05-03 21:40 31.25127 121.60541 5929 ft 228 kts 38°
2026-05-03 21:40 31.26396 121.61462 5646 ft 215 kts 13°
2026-05-03 21:40 31.27842 121.61649 5355 ft 207 kts 351°
2026-05-03 21:41 31.28787 121.61419 5188 ft 202 kts 341°
2026-05-03 21:41 31.30531 121.60758 5059 ft 204 kts 340°
2026-05-03 21:41 31.31436 121.60404 4980 ft 204 kts 340°
2026-05-03 21:41 31.32800 121.59877 4809 ft 203 kts 340°
2026-05-03 21:42 31.34127 121.59368 4567 ft 198 kts 340°
2026-05-03 21:42 31.35410 121.58878 4311 ft 195 kts 340°
2026-05-03 21:42 31.36692 121.58389 4062 ft 193 kts 340°
2026-05-03 21:42 31.38003 121.58045 3810 ft 196 kts 354°
2026-05-03 21:43 31.39344 121.58373 3556 ft 204 kts 23°
2026-05-03 21:43 31.40386 121.59519 3309 ft 212 kts 55°
2026-05-03 21:43 31.40869 121.61158 3075 ft 212 kts 74°
2026-05-03 21:43 31.41016 121.62808 3033 ft 203 kts 90°
2026-05-03 21:44 31.40662 121.64346 3034 ft 205 kts 116°
2026-05-03 21:44 31.39780 121.65642 3014 ft 206 kts 135°
2026-05-03 21:44 31.38753 121.66818 3009 ft 208 kts 137°
2026-05-03 21:44 31.37704 121.67985 3007 ft 208 kts 137°
2026-05-03 21:45 31.36650 121.69152 3011 ft 208 kts 137°
2026-05-03 21:45 31.35589 121.70307 3010 ft 208 kts 139°
2026-05-03 21:45 31.34865 121.70893 3012 ft 207 kts 154°
2026-05-03 21:45 31.33547 121.71492 3015 ft 204 kts 167°
2026-05-03 21:46 31.32207 121.71975 3005 ft 195 kts 166°
2026-05-03 21:46 31.30952 121.72448 3030 ft 183 kts 165°
2026-05-03 21:46 31.29755 121.72906 2942 ft 184 kts 165°
2026-05-03 21:46 31.28540 121.73377 2715 ft 183 kts 165°
2026-05-03 21:47 31.27343 121.73833 2477 ft 179 kts 166°
2026-05-03 21:47 31.26160 121.74281 2230 ft 177 kts 166°
2026-05-03 21:47 31.24993 121.74725 1999 ft 175 kts 166°
2026-05-03 21:47 31.23876 121.75150 1760 ft 169 kts 167°
2026-05-03 21:48 31.22761 121.75573 1531 ft 160 kts 166°
2026-05-03 21:48 31.21728 121.75965 1326 ft 151 kts 166°
2026-05-03 21:48 31.20762 121.76332 1126 ft 142 kts 166°
2026-05-03 21:48 31.19832 121.76685 949 ft 139 kts 166°
2026-05-03 21:49 31.18924 121.77029 760 ft 139 kts 165°
2026-05-03 21:49 31.18003 121.77372 552 ft 138 kts 165°
2026-05-03 21:49 31.17084 121.77727 383 ft 138 kts 162°
2026-05-03 21:49 31.16188 121.78077 214 ft 137 kts 163°
2026-05-03 21:50 31.15289 121.78416 51 ft 136 kts 163°
2026-05-03 21:50 31.14445 121.78728 29 ft 108 kts 162°
2026-05-03 21:50 31.13943 121.78917 27 ft 45 kts 162°
2026-05-03 21:50 31.13747 121.78991 28 ft 27 kts 162°
2026-05-03 21:51 31.13582 121.79077 30 ft 25 kts 142°
2026-05-03 21:51 31.13455 121.79215 30 ft 25 kts 135°
2026-05-03 21:51 31.13338 121.79343 30 ft 21 kts 147°
2026-05-03 21:51 31.13199 121.79406 29 ft 22 kts 162°
2026-05-03 21:52 31.13067 121.79456 29 ft 21 kts 162°
2026-05-03 21:52 31.12933 121.79507 29 ft 22 kts 162°
2026-05-03 21:52 31.12776 121.79566 29 ft 24 kts 162°
2026-05-03 21:52 31.12701 121.79594 29 ft 0 kts 162°
2026-05-03 21:53 31.12677 121.79604 29 ft 9 kts 160°
2026-05-03 21:53 31.12650 121.79664 29 ft 10 kts 89°
2026-05-03 21:53 31.12671 121.79749 29 ft 12 kts 71°
2026-05-03 21:53 31.12704 121.79867 30 ft 20 kts 72°
2026-05-03 21:54 31.12746 121.80018 29 ft 9 kts 72°
2026-05-03 21:54 31.12753 121.80043 29 ft 9 kts 72°
2026-05-03 21:54 31.12820 121.80063 29 ft 12 kts 343°
2026-05-03 21:54 31.12920 121.80027 29 ft 18 kts 342°
2026-05-03 21:55 31.13051 121.79978 29 ft 21 kts 342°
2026-05-03 21:55 31.13198 121.79923 28 ft 23 kts 342°
2026-05-03 21:55 31.13361 121.79861 29 ft 25 kts 342°
2026-05-03 21:55 31.13508 121.79806 29 ft 21 kts 342°
2026-05-03 21:56 31.13655 121.79750 29 ft 23 kts 342°
2026-05-03 21:56 31.13816 121.79688 29 ft 25 kts 342°
2026-05-03 21:56 31.13934 121.79645 28 ft 16 kts 342°
2026-05-03 21:56 31.14051 121.79601 29 ft 18 kts 342°
2026-05-03 21:57 31.14115 121.79609 29 ft 9 kts 47°
2026-05-03 21:57 31.14130 121.79686 29 ft 11 kts 83°
2026-05-03 21:57 31.14156 121.79798 29 ft 18 kts 72°
2026-05-03 21:57 31.14197 121.79949 29 ft 21 kts 72°
2026-05-03 21:58 31.14243 121.80117 29 ft 23 kts 72°
2026-05-03 21:58 31.14293 121.80296 29 ft 23 kts 72°
2026-05-03 21:58 31.14345 121.80484 29 ft 25 kts 72°
2026-05-03 21:58 31.14397 121.80669 29 ft 23 kts 72°
2026-05-03 21:59 31.14447 121.80851 29 ft 25 kts 72°
2026-05-03 21:59 31.14499 121.81039 29 ft 19 kts 71°
2026-05-03 21:59 31.14541 121.81190 29 ft 21 kts 72°
2026-05-03 21:59 31.14575 121.81305 29 ft 10 kts 59°
2026-05-03 22:00 31.14642 121.81315 29 ft 11 kts 343°
2026-05-03 22:00 31.14722 121.81283 29 ft 13 kts 342°
2026-05-03 22:00 31.14821 121.81246 29 ft 16 kts 342°
2026-05-03 22:00 31.14937 121.81202 29 ft 19 kts 342°
2026-05-03 22:01 31.15066 121.81153 29 ft 21 kts 342°
2026-05-03 22:01 31.15209 121.81099 29 ft 23 kts 342°
2026-05-03 22:01 31.15327 121.81054 29 ft 11 kts 342°
2026-05-03 22:01 31.15367 121.81007 29 ft 7 kts 278°
2026-05-03 22:02 31.15358 121.80952 29 ft 7 kts 252°
2026-05-03 22:02 31.15356 121.80943 29 ft 0 kts 252°
2026-05-03 22:02 31.15353 121.80933 29 ft 4 kts 252°
2026-05-03 22:02 31.15330 121.80876 29 ft 10 kts 227°
2026-05-03 22:03 31.15268 121.80870 29 ft 9 kts 174°
2026-05-03 22:03 31.15245 121.80847 29 ft 5 kts 236°
2026-05-03 22:03 31.15226 121.80803 29 ft 7 kts 248°
2026-05-03 22:03 31.15221 121.80785 29 ft 0 kts 251°